Wind_Gust
26 25 24 25 25 25 24 25 25 26 26 26 25 25 24 23 22 20 20 18 17 15 14 13 12 12 11 11 9 6 5 16 17 21 26 38 28 18 23 24 20 19 14 13 17 20 22 20 21 22 17 18 16 21 16 17 21 15 12 6 6 9 12 10 20 16 20 16 18 20 18 15 14 20 17 16 20 14 14 18 18 17 18 16 17 15 15 15
25 25 25 25 26 26 24 24 25 25 26 25 25 25 25 23 22 21 19 19 17 16 15 13 13 12 11 10 9 4 9 16 22 25 36 38 21 27 20 22 21 21 16 20 21 21 20 19 20 16 19 14 13 15 12 10 15 8 7 7 13 13 12 7 12 14 21 18 14 15 16 19 14 16 16 12 13 15 14 15 15 17 16 16 15 15 15 14
26 26 26 25 26 25 25 24 25 25 25 25 24 25 24 24 23 21 20 19 17 15 14 13 12 12 11 10 8 6 12 17 21 29 37 33 38 22 26 24 19 18 23 25 22 24 22 16 24 23 14 11 9 13 14 13 10 7 10 10 15 8 11 11 22 17 16 18 15 16 16 22 15 15 15 11 15 17 17 18 15 17 17 15 15 14 16 15
26 26 26 26 27 26 25 25 25 24 25 24 24 24 23 24 23 23 20 19 17 15 13 13 13 11 11 10 5 12 15 18 21 21 21 22 28 26 24 22 20 19 21 23 23 25 21 15 27 22 18 8 13 13 12 11 10 7 11 10 9 10 9 19 32 20 20 16 17 16 19 20 15 13 16 10 17 14 13 20 20 18 16 15 13 14 14 12
26 26 27 27 27 26 25 25 25 24 24 24 24 24 24 23 23 23 21 20 18 15 12 11 13 11 10 9 3 13 14 14 14 12 14 11 17 21 23 22 19 22 23 21 24 23 23 22 17 20 11 10 9 8 13 9 13 14 14 14 18 15 12 23 24 20 19 20 18 17 16 19 16 16 14 13 15 16 17 12 17 18 17 18 14 14 12 9
27 27 27 27 27 27 26 26 25 25 24 24 24 24 23 23 24 24 22 20 18 15 13 11 12 10 9 6 13 15 12 12 12 11 12 15 15 17 20 21 19 22 21 24 25 21 18 20 19 10 8 10 11 14 7 15 14 14 17 15 16 20 26 33 29 26 17 21 18 20 21 16 16 15 10 13 17 14 12 19 16 16 16 16 14 12 11 10
27 27 27 27 27 27 27 26 27 26 24 24 24 24 23 23 23 23 22 19 17 15 12 11 10 9 7 5 15 16 22 33 24 19 15 13 14 16 15 15 15 18 22 25 25 26 12 16 19 15 10 14 13 18 16 15 16 19 17 13 24 23 24 21 28 26 16 17 21 24 21 19 15 14 13 19 13 11 13 17 15 15 13 12 13 10 11 11
28 27 27 28 27 27 27 27 27 26 24 24 24 24 24 24 24 23 21 20 17 15 12 10 11 9 6 12 13 16 20 28 29 21 16 16 15 16 17 17 19 19 24 26 22 21 20 13 12 15 12 12 8 13 16 12 16 19 21 24 20 26 28 19 25 22 19 17 18 17 20 19 16 17 18 16 13 12 13 15 15 14 13 12 13 12 11 11
29 28 27 28 27 28 28 28 27 26 25 25 24 24 24 24 23 23 22 19 16 14 11 11 11 8 10 13 18 25 30 34 30 20 20 18 18 17 21 21 21 22 25 27 23 21 18 12 15 16 10 14 18 15 16 18 16 19 23 26 22 21 24 19 21 25 21 17 16 17 15 11 17 20 18 16 13 12 13 14 13 13 13 13 14 12 12 11
29 29 29 28 28 28 29 29 27 26 25 26 25 25 24 24 24 22 21 19 16 13 11 10 10 11 12 15 17 25 28 27 21 24 23 21 19 20 22 21 24 25 26 25 24 25 19 19 20 23 18 13 24 20 23 18 16 19 22 18 16 20 21 19 20 23 20 19 14 18 9 19 16 16 15 13 15 14 13 13 11 12 12 13 13 13 11 13
30 29 30 29 29 29 30 30 28 27 27 26 27 24 23 24 23 22 20 18 15 12 12 12 10 12 15 17 21 29 22 26 18 24 26 23 21 19 22 24 23 27 24 24 28 26 16 15 13 16 16 16 14 16 23 24 22 18 23 17 24 19 19 19 18 20 15 20 10 14 14 20 14 14 19 18 15 14 17 14 12 12 13 15 14 12 13 14
30 30 30 30 30 30 30 30 30 28 28 28 25 24 24 23 22 22 20 18 14 13 12 13 15 17 17 21 27 37 18 22 11 19 26 26 25 24 21 24 25 24 25 22 16 17 19 15 18 20 13 27 16 17 19 19 15 25 22 13 20 21 23 16 20 18 17 15 15 14 14 12 15 17 22 20 17 18 17 14 13 13 13 14 15 14 13 14
30 31 31 31 32 31 31 31 30 31 29 25 27 27 25 23 23 22 18 15 13 13 12 12 13 17 17 22 34 36 40 36 27 18 19 25 23 21 22 24 27 25 26 19 18 20 24 20 23 19 20 23 22 22 20 30 28 20 13 17 13 13 15 15 18 13 18 16 15 17 15 14 16 22 21 20 20 18 18 16 14 12 14 14 14 16 14 14
31 31 32 32 32 32 32 31 32 30 27 26 27 27 27 27 24 20 15 14 11 10 12 13 15 17 19 24 37 36 28 22 26 32 21 25 23 24 21 22 27 26 23 15 15 24 24 22 20 16 19 14 17 24 21 24 17 8 17 7 11 9 13 15 17 14 16 13 14 10 12 15 19 18 21 20 19 18 18 17 14 12 13 15 14 15 15 15
32 32 32 32 33 32 32 33 32 29 29 27 28 30 28 27 23 17 13 11 13 14 15 11 16 15 18 31 31 38 35 32 25 25 24 31 23 19 17 13 21 17 23 18 25 27 25 19 14 14 10 15 25 18 16 12 12 9 12 14 11 12 11 15 15 14 15 14 14 11 10 16 17 21 17 20 19 18 17 18 16 14 14 14 14 15 17 16
32 33 32 32 31 33 33 32 30 32 31 29 28 32 29 23 20 14 12 12 12 18 16 12 19 23 25 35 27 19 23 21 22 20 22 29 26 17 22 17 16 15 25 27 23 19 24 16 13 10 12 16 18 13 12 14 11 16 17 8 13 16 14 16 14 13 15 17 14 14 13 13 18 20 19 21 20 19 17 17 16 15 13 15 13 14 15 15
33 33 33 31 31 32 33 32 32 33 33 29 32 31 26 18 10 10 11 13 13 14 17 17 18 27 17 21 22 21 24 23 20 17 16 28 23 20 23 21 16 19 16 23 25 19 23 21 15 19 14 10 10 10 13 14 13 12 14 12 16 18 16 13 16 16 15 16 15 11 12 14 17 21 22 21 21 20 18 18 19 19 16 16 14 16 17 16
34 34 33 32 32 32 34 34 32 34 33 32 28 27 32 19 17 18 12 12 18 18 21 24 24 21 35 35 33 26 24 22 21 23 19 19 23 21 20 19 12 18 17 15 16 10 17 11 15 13 16 9 9 10 12 13 14 14 15 13 17 20 15 15 20 20 16 17 15 15 11 11 23 21 23 24 23 22 21 22 22 20 17 19 15 17 19 18
33 34 35 34 32 33 34 34 34 34 32 33 25 25 13 13 16 17 18 18 16 15 15 24 28 28 31 26 33 30 27 23 20 16 21 16 24 24 20 11 19 16 17 13 19 12 11 10 9 12 13 11 12 13 15 15 16 13 13 15 19 21 19 20 19 21 17 15 17 15 14 17 19 22 21 23 25 24 23 19 17 17 15 17 15 17 18 18
34 34 34 35 34 33 33 36 33 34 29 31 31 27 14 13 13 13 17 19 25 21 19 19 31 29 31 36 25 27 28 26 18 20 19 22 20 26 19 15 13 11 18 13 11 10 12 10 11 12 16 16 14 13 14 17 16 13 18 28 16 25 25 25 18 20 19 16 13 15 9 17 22 25 26 25 25 21 19 19 17 15 15 16 14 17 20 18
35 35 35 36 35 34 35 35 36 34 31 24 21 20 21 25 22 18 22 19 24 26 28 30 28 34 37 31 26 26 26 24 26 22 23 21 21 27 18 16 17 10 10 12 17 13 14 14 16 18 19 17 17 18 17 18 17 22 21 23 27 33 23 24 20 18 18 15 10 9 14 16 24 24 25 23 22 23 22 22 19 18 16 16 15 16 18 16
35 36 36 36 35 35 35 37 38 32 34 20 15 20 15 16 16 16 20 28 20 25 31 33 30 34 31 33 28 28 24 31 28 25 22 20 23 25 12 19 15 15 9 12 7 9 14 21 17 17 18 16 17 20 26 23 15 19 17 18 21 25 31 26 19 15 20 14 16 18 16 20 22 26 23 23 26 29 25 26 26 23 18 17 16 16 16 13
35 36 36 36 36 38 37 38 36 32 24 18 19 15 19 16 15 17 18 26 33 32 29 30 33 33 36 32 35 22 24 24 27 24 24 22 21 24 29 20 14 14 14 12 14 7 17 23 23 22 17 18 22 21 19 19 17 13 15 14 15 20 16 15 19 17 16 20 13 15 14 14 14 21 23 25 27 24 22 25 22 21 21 17 19 18 17 16
34 35 36 35 37 37 39 38 37 19 16 19 24 16 16 14 17 17 21 20 25 24 29 31 29 31 33 35 25 26 22 26 24 25 18 27 26 23 27 22 20 20 20 15 18 18 22 25 18 13 19 21 19 17 18 11 16 22 17 13 16 14 11 13 19 16 16 17 13 9 12 9 8 19 23 21 20 19 17 17 17 19 18 16 15 17 19 21
34 33 35 35 34 39 41 36 15 17 24 22 16 17 20 16 14 16 21 24 29 37 25 30 30 32 32 29 28 31 25 27 22 23 24 22 23 26 22 30 24 24 20 19 17 17 20 30 27 16 18 15 11 14 26 23 17 23 20 17 17 18 16 14 15 13 13 13 10 15 11 12 12 16 25 22 19 18 15 17 18 18 14 13 15 17 15 17
33 33 33 34 33 36 44 16 13 29 27 22 19 21 21 17 16 15 17 17 22 27 28 37 28 39 34 32 27 33 29 39 23 28 26 21 27 25 25 22 30 22 21 21 20 17 25 29 18 13 22 18 27 29 24 25 18 9 14 16 17 15 14 12 15 8 6 16 14 8 12 13 9 14 16 18 20 21 14 21 19 17 16 16 17 17 17 18
33 31 31 33 31 29 27 14 22 29 22 17 21 23 19 18 14 15 19 19 22 24 32 21 33 35 39 25 30 22 34 31 22 22 28 26 25 22 26 19 25 24 32 24 22 16 16 23 22 18 29 26 24 25 27 24 15 15 13 15 7 10 13 14 17 11 10 11 10 10 10 10 10 17 13 14 20 17 22 22 17 16 16 17 16 18 16 20
34 31 30 32 35 19 19 26 25 23 20 20 21 20 18 17 16 12 14 15 21 17 33 32 20 23 25 22 27 33 22 14 27 30 25 21 21 21 24 20 23 26 30 28 20 30 29 26 21 20 26 26 24 29 24 24 17 13 13 18 24 21 21 24 13 16 8 8 10 13 8 9 13 14 15 18 20 20 18 21 22 28 25 18 22 19 18 19
34 32 28 31 35 40 19 19 17 23 21 23 20 21 21 16 16 14 15 11 20 31 26 19 17 17 20 18 29 28 26 27 28 11 28 25 24 19 27 24 21 23 28 29 22 14 31 28 26 18 19 21 21 23 24 23 15 14 18 22 25 26 15 18 15 15 10 7 12 12 14 11 13 13 14 17 19 19 20 20 20 27 26 22 22 19 20 20
37 35 29 26 31 17 11 17 21 23 25 21 21 21 21 16 15 13 15 16 16 18 21 15 20 21 21 25 28 28 30 25 28 24 23 31 23 23 29 18 19 19 22 29 28 25 25 24 31 24 22 21 16 19 27 21 18 21 31 32 26 27 17 18 13 12 10 6 16 18 20 16 11 11 16 18 27 22 14 19 17 25 25 23 20 23 21 21
37 38 33 22 21 20 20 20 15 18 19 20 21 23 18 15 17 18 13 26 25 31 21 19 23 21 24 26 29 27 29 29 31 29 25 23 24 24 20 27 21 23 19 20 22 21 23 21 26 25 19 20 16 22 25 20 18 18 19 22 19 17 17 11 9 11 8 14 18 22 23 16 12 12 12 18 23 24 21 20 21 25 26 25 21 22 22 22
37 39 38 29 22 18 15 19 24 22 20 20 19 20 17 20 22 24 21 11 23 17 24 21 22 25 24 23 27 27 34 28 27 32 26 24 21 24 25 23 17 22 19 18 21 18 19 22 18 19 19 17 16 15 22 27 28 25 23 18 16 14 19 9 12 6 12 16 14 22 18 12 17 19 26 23 22 22 20 23 24 26 25 21 24 22 22 20
38 39 39 28 15 15 21 24 22 19 17 18 18 15 18 20 22 22 29 21 22 16 26 33 25 26 20 23 30 28 24 28 26 32 27 32 26 24 23 28 21 23 19 13 20 14 17 16 21 20 17 21 20 25 18 19 23 20 19 12 13 13 12 10 11 10 10 14 18 22 32 21 16 20 24 20 18 21 21 22 23 28 22 24 24 23 21 19
39 38 29 18 18 21 20 17 19 17 17 14 15 14 19 19 25 13 27 29 29 31 28 31 37 30 22 30 24 26 31 27 25 35 29 29 30 22 26 28 25 24 24 12 16 13 16 18 23 21 22 23 25 25 28 17 19 18 19 19 19 16 16 11 11 11 12 17 20 28 20 14 8 14 22 20 21 15 14 19 19 22 22 24 23 21 20 17
44 34 23 22 20 22 22 22 18 16 13 16 17 20 21 26 21 24 23 26 30 26 30 27 32 31 29 30 25 27 30 30 31 26 30 33 31 29 24 25 27 24 18 20 16 22 18 19 19 23 14 26 22 32 39 23 15 11 14 20 13 15 25 19 15 14 19 16 18 26 18 17 13 18 19 15 16 18 17 21 18 17 19 19 24 17 19 23
27 23 27 23 19 15 19 18 11 9 12 16 20 22 28 24 24 19 27 18 21 26 31 34 32 29 28 28 21 26 30 34 22 30 28 32 31 34 27 25 27 25 26 25 15 18 17 21 18 22 19 23 21 30 30 26 21 18 14 13 21 18 18 17 15 12 8 13 12 22 12 23 14 17 15 18 19 16 17 18 18 21 17 19 18 21 23 23
25 26 23 19 22 12 11 12 16 13 13 18 22 24 23 29 24 24 29 28 26 29 27 25 30 28 23 27 26 26 32 35 30 30 30 25 37 31 28 25 21 26 26 22 21 17 18 13 13 21 24 19 22 29 24 25 24 29 21 26 23 17 22 17 11 8 8 13 17 19 12 11 16 18 18 17 18 15 19 17 19 17 17 20 21 20 21 22
27 23 23 25 16 15 14 16 14 14 17 19 22 13 21 31 20 26 28 30 30 27 31 25 29 24 26 26 25 26 28 31 27 34 28 26 38 23 28 35 23 28 27 25 25 18 21 19 16 19 19 16 25 27 22 21 29 26 25 19 22 15 15 10 12 7 9 9 13 19 14 8 11 13 20 16 20 14 18 18 20 20 18 19 17 20 19 20
21 23 23 16 18 18 17 15 15 16 18 23 23 21 25 32 27 27 24 25 22 31 33 29 28 23 29 25 25 29 29 34 28 30 31 27 36 23 31 27 25 26 25 24 28 19 19 18 13 20 25 21 24 23 18 19 25 21 19 20 17 14 11 12 22 11 14 8 7 19 19 17 16 20 18 17 18 18 18 19 19 19 18 19 18 19 19 21
22 23 10 16 21 18 18 16 17 17 21 22 20 29 20 26 25 25 27 24 20 22 22 24 23 25 26 24 29 29 27 28 28 29 28 18 30 20 33 29 33 30 26 24 24 21 17 16 17 16 17 24 22 24 22 22 22 23 21 18 21 16 12 15 10 14 12 10 11 14 12 17 18 22 21 20 20 20 21 23 20 19 17 18 18 19 21 23
20 21 18 18 25 19 19 18 18 19 23 22 23 27 23 29 21 23 23 19 23 23 27 27 28 26 25 31 30 24 28 29 31 30 25 25 31 29 31 38 32 28 34 27 23 22 19 20 20 18 22 23 22 28 23 30 28 22 21 19 18 14 11 8 14 24 25 10 11 15 16 17 19 17 24 23 20 21 22 23 20 20 21 20 19 18 21 22
18 20 20 29 24 17 18 18 18 16 24 22 23 25 28 18 30 25 29 20 16 28 27 30 28 31 30 29 27 28 31 30 29 29 27 28 28 27 32 42 36 31 36 28 27 23 24 17 19 17 26 28 24 30 26 29 26 23 24 20 16 14 19 13 10 11 13 13 12 19 15 14 16 17 19 21 19 23 21 23 22 20 21 20 21 21 21 22
19 23 26 29 18 15 15 17 16 20 21 23 19 26 29 34 26 29 31 25 21 28 25 27 22 25 28 32 27 33 31 39 27 25 27 26 32 31 43 46 39 37 39 36 34 20 19 29 21 19 19 23 23 20 17 22 21 20 21 16 16 17 18 17 17 12 13 17 14 17 12 15 14 20 21 19 20 22 23 22 24 19 20 18 19 20 19 16
21 25 25 18 16 15 25 16 15 15 20 21 24 28 25 31 30 28 28 22 23 19 20 24 24 22 28 28 32 32 29 33 19 28 28 30 37 41 36 46 42 33 33 23 24 31 30 22 22 14 19 22 16 22 23 18 24 19 18 17 17 17 22 17 15 9 7 13 13 13 12 13 16 13 17 15 18 21 19 18 23 19 16 18 19 17 18 17
26 25 21 18 18 19 22 17 18 17 18 21 25 25 28 26 20 25 23 22 25 22 22 20 23 23 33 26 36 35 33 30 39 30 35 33 44 44 34 47 39 29 31 31 30 31 24 13 22 18 16 15 18 18 22 20 20 17 17 20 23 18 21 13 11 15 8 9 15 13 11 14 12 11 13 17 22 22 17 18 20 22 19 18 16 15 15 17
17 16 19 19 21 17 18 17 17 19 18 18 21 20 22 27 27 25 22 22 27 20 18 23 20 26 22 25 30 33 35 35 39 36 37 35 42 40 41 41 30 29 42 32 39 29 19 13 17 18 23 22 20 22 16 15 13 22 19 22 27 25 20 16 14 12 13 10 12 14 19 11 13 15 15 17 21 22 20 18 21 19 16 17 15 17 15 17
20 19 24 20 23 13 22 19 20 20 16 19 17 21 22 23 26 26 22 24 25 34 30 18 20 28 25 23 22 29 38 39 40 40 35 31 35 42 42 35 35 32 45 34 36 25 16 21 21 21 24 25 22 20 15 18 18 18 19 21 30 24 20 16 17 19 14 13 10 11 16 19 13 13 15 17 19 19 22 21 20 20 21 22 18 16 15 13
18 19 20 20 14 18 20 18 24 19 19 18 20 20 21 23 22 24 24 17 20 23 22 15 20 21 22 21 22 22 29 36 40 34 36 32 37 39 44 34 32 35 39 40 28 22 20 15 19 21 23 26 26 25 23 19 18 20 19 19 20 24 25 21 18 22 14 16 19 11 13 17 20 20 19 24 26 25 25 25 26 23 21 18 18 17 17 15
19 23 20 24 20 18 21 23 24 20 21 18 21 19 21 19 19 18 19 23 21 18 21 11 20 22 20 21 20 18 20 23 21 30 31 35 32 37 34 36 24 35 34 35 37 25 29 20 17 21 25 27 27 27 24 24 21 19 20 20 19 20 20 25 25 17 18 12 15 16 15 17 21 18 17 23 24 28 26 23 20 22 22 22 21 18 16 17
19 19 23 25 22 23 21 19 20 19 19 16 15 15 23 16 17 17 18 18 21 15 15 16 19 20 19 18 18 18 18 22 23 28 29 28 36 22 28 19 26 38 36 30 31 21 24 23 26 23 24 28 27 27 26 25 23 25 19 19 17 17 22 26 24 18 15 18 19 16 13 14 14 13 17 13 16 17 23 26 25 23 22 22 21 19 17 18
16 15 18 21 25 20 21 19 19 18 18 17 17 16 15 16 15 18 16 15 13 14 16 18 19 20 15 16 16 16 21 22 25 25 28 27 27 28 23 31 29 34 35 36 22 33 21 20 20 19 20 22 24 24 24 25 27 26 23 22 21 19 14 19 22 16 16 17 16 14 14 17 13 16 15 12 12 26 27 25 24 24 24 24 23 22 21 19
19 17 19 18 22 18 24 19 21 19 19 15 18 16 21 16 18 19 22 11 13 12 14 17 18 20 15 13 12 18 23 27 28 28 28 30 29 32 30 34 34 33 34 33 23 27 21 25 27 21 20 16 21 27 27 24 24 26 23 20 20 18 18 17 17 17 21 18 20 16 21 20 16 15 23 17 19 25 25 25 25 24 25 27 26 25 24 22
Wind_Speed
19 19 19 18 17 16 16 16 15 15 15 15 15 15 14 14 13 13 13 12 11 12 11 11 10 9 9 9 7 5 4 1 1 1 3 19 16 13 10 6 5 10 7 3 3 3 8 6 6 5 6 0 2 0 3 1 0 2 1 1 1 3 2 4 5 6 1 3 3 4 6 3 2 1 1 1 2 1 4 4 1 6 6 1 1 6 5 5
19 19 19 19 19 18 17 16 16 15 15 15 15 15 14 14 14 13 13 12 11 11 11 10 10 9 8 7 7 2 1 1 4 8 17 22 16 12 14 15 9 9 10 3 6 6 7 6 9 7 5 3 1 2 1 1 1 1 1 2 5 3 4 4 3 6 3 2 7 5 3 4 3 5 2 2 3 5 4 2 2 5 5 5 6 6 6 6
19 19 19 19 19 19 18 18 17 16 15 15 14 14 14 14 14 13 12 12 11 10 10 10 10 9 7 7 5 1 2 2 3 11 19 23 29 17 16 15 15 12 8 5 5 8 8 7 7 1 3 6 2 4 0 1 1 3 3 4 4 4 2 2 3 5 5 7 7 6 5 4 2 4 2 3 5 6 7 5 2 3 4 4 4 5 6 8
19 19 19 19 19 19 18 19 18 17 16 16 15 14 14 13 14 12 12 12 11 9 8 10 11 8 7 6 4 1 2 2 5 7 5 11 13 17 19 16 14 11 8 9 5 6 5 4 6 0 2 1 2 1 1 2 1 1 2 3 3 2 1 2 5 4 5 8 8 7 4 3 3 5 5 3 6 4 3 7 9 8 9 7 5 5 5 7
20 20 19 19 19 19 20 19 19 17 17 16 15 15 14 14 13 12 12 12 10 9 7 8 10 8 7 5 2 1 1 4 5 3 5 6 6 11 16 17 15 9 11 4 4 5 4 6 0 1 1 3 0 1 2 1 2 2 5 5 3 3 1 5 6 4 4 5 7 4 7 7 2 2 6 8 8 7 8 8 4 10 10 10 8 7 4 5
21 21 20 19 19 19 19 19 18 18 18 16 16 15 14 13 13 13 12 11 10 8 7 7 8 6 5 2 0 1 0 2 3 4 5 8 8 9 14 17 15 10 7 5 4 3 5 3 3 3 1 0 2 3 2 4 2 1 2 3 4 4 3 2 5 3 7 5 7 7 8 1 3 2 5 8 9 4 6 7 8 10 10 9 7 5 4 6
21 22 21 21 20 19 19 20 19 19 18 17 15 15 14 14 13 13 13 11 9 8 6 7 7 5 2 3 1 1 1 9 4 10 9 4 5 6 12 12 11 9 8 6 6 4 5 5 4 3 2 0 2 2 5 2 3 2 3 1 2 4 5 3 1 4 3 9 11 9 5 7 6 2 1 4 1 2 5 10 10 8 8 7 7 6 7 7
22 22 22 22 21 20 19 19 20 19 18 17 16 16 16 15 13 13 12 11 9 7 6 7 8 5 4 1 2 1 1 9 16 9 6 6 6 9 13 9 11 8 9 10 8 9 3 3 5 2 1 3 2 4 2 2 2 2 2 2 2 3 4 3 2 3 4 7 5 4 5 7 3 3 3 1 0 4 8 9 8 7 7 5 6 6 6 7
23 22 22 22 22 21 21 21 20 19 18 17 16 17 17 16 14 14 13 12 9 5 6 8 7 5 2 2 2 3 10 7 8 5 10 8 8 9 15 7 8 12 9 8 8 7 4 4 4 5 3 2 2 2 2 2 3 3 6 2 2 2 2 4 4 5 8 4 4 5 6 3 6 8 4 1 3 4 8 9 8 7 8 7 7 6 5 5
23 23 23 23 23 22 23 22 21 20 19 18 18 18 17 16 15 15 13 11 9 6 6 8 7 7 5 3 0 2 8 7 5 6 10 10 8 9 6 10 12 9 6 9 5 5 7 5 6 6 2 2 2 3 3 4 2 2 1 2 5 4 2 3 6 5 7 6 5 8 4 6 8 8 1 1 4 6 9 9 6 8 8 7 5 5 5 5
23 23 24 23 23 23 23 23 22 21 20 20 19 18 17 16 16 13 14 11 8 6 6 9 8 8 3 2 4 8 7 4 2 8 6 9 10 9 7 11 12 10 11 6 10 12 7 7 4 3 2 2 2 3 2 2 4 2 2 4 4 4 3 2 4 8 3 4 6 9 7 9 5 2 7 8 6 9 12 8 6 6 7 7 8 7 6 6
24 23 24 24 24 24 24 24 23 22 21 21 18 18 18 17 15 14 14 10 7 5 9 10 11 3 1 2 6 11 3 4 4 9 6 5 7 12 11 13 14 13 10 7 8 9 8 8 9 4 3 3 1 2 2 3 1 2 3 2 6 6 4 3 6 9 8 5 10 9 7 2 3 5 6 12 8 8 11 8 7 7 7 8 8 7 6 8
24 24 24 25 25 25 24 23 24 23 22 19 18 18 19 18 15 14 12 7 2 5 9 9 8 2 0 2 12 19 5 9 10 3 5 9 7 4 7 14 15 12 12 7 6 5 3 7 8 4 4 5 2 1 0 3 0 2 2 1 6 7 5 8 9 7 11 5 10 10 2 7 7 3 8 10 9 8 9 7 6 6 7 8 7 7 8 7
24 24 25 25 24 25 25 24 25 24 21 20 21 20 19 18 16 13 11 7 3 8 10 10 5 2 1 7 9 2 6 9 10 5 11 11 10 7 3 4 6 5 7 7 3 3 1 6 6 3 2 3 2 1 2 2 2 1 0 2 1 3 4 4 4 8 10 2 10 5 4 5 3 4 8 9 10 11 9 7 7 7 8 7 7 8 9 9
25 25 25 25 25 25 25 26 24 23 23 22 22 21 19 17 17 11 6 4 8 12 13 9 0 3 1 9 8 12 15 7 7 10 12 11 13 4 2 3 5 8 9 9 2 3 2 6 4 2 1 0 3 3 2 3 2 0 2 3 3 3 5 7 3 8 7 1 7 6 3 6 4 6 7 8 8 9 8 7 9 8 9 8 7 9 9 10
25 26 25 25 24 25 25 25 23 24 23 23 22 25 21 13 11 6 7 6 10 15 9 5 2 2 2 10 5 9 8 6 10 12 11 16 13 8 8 11 11 6 5 1 3 2 2 4 3 2 1 4 5 4 4 4 3 3 2 2 3 2 5 6 2 6 8 4 1 8 3 2 1 6 7 8 10 10 10 9 10 9 9 9 8 8 9 8
26 25 26 24 25 25 26 24 24 25 25 22 26 24 10 5 5 8 9 9 7 6 4 1 4 1 1 4 5 6 6 6 4 2 6 16 15 10 9 11 7 8 6 5 4 4 2 3 2 1 1 4 5 5 3 2 3 3 0 3 3 2 2 2 5 2 5 10 3 4 5 7 3 11 10 9 11 11 10 11 12 11 10 10 9 9 9 10
25 26 27 26 25 26 26 25 24 26 26 23 22 19 16 9 14 14 6 1 3 3 3 2 2 1 11 7 10 8 1 6 4 2 5 7 13 14 9 4 6 12 7 6 0 3 1 1 2 2 1 1 3 3 3 4 5 4 0 1 4 1 3 5 2 2 5 5 9 3 3 4 5 11 11 13 13 13 13 13 14 13 11 11 9 10 10 11
26 27 27 27 26 25 26 26 25 25 26 24 20 14 1 10 6 2 4 3 2 2 1 2 4 4 9 4 8 9 5 3 6 5 1 10 11 12 7 6 12 10 4 4 2 4 0 2 3 1 3 2 5 7 7 8 5 5 6 4 3 3 4 2 4 3 7 4 5 7 6 5 7 11 11 11 14 14 15 12 10 11 10 10 9 10 10 11
26 26 26 27 27 24 26 26 24 24 23 17 9 2 1 1 1 0 0 1 3 5 6 5 10 8 14 17 9 2 4 1 3 5 4 6 9 8 6 7 4 3 8 5 4 4 3 3 4 6 7 8 7 8 8 6 8 4 2 2 5 4 5 5 5 6 4 3 7 8 5 7 12 15 16 16 13 12 10 10 10 10 9 10 9 10 12 12
27 27 27 28 27 26 25 26 24 25 19 5 4 2 2 3 3 2 2 6 6 9 10 7 13 14 16 14 9 8 9 10 4 5 5 10 9 12 4 7 4 4 5 7 8 1 5 2 7 9 10 10 8 7 6 3 4 5 4 4 5 5 6 4 3 4 5 6 5 4 5 9 13 14 15 13 12 14 14 13 12 12 10 9 10 11 12 10
26 27 28 28 27 27 26 25 26 23 11 1 1 2 2 3 2 5 1 6 4 10 10 14 9 13 16 16 17 4 7 9 18 15 5 9 10 11 3 5 6 8 2 4 4 2 2 7 9 9 8 6 4 4 3 4 2 1 4 5 3 5 5 8 7 6 4 8 6 6 7 8 12 14 13 15 16 16 15 16 16 14 12 9 8 8 8 5
26 28 27 28 28 28 27 27 26 17 2 3 4 4 4 9 6 3 1 3 11 5 10 11 12 15 20 12 8 6 8 10 11 11 2 8 7 9 9 5 6 4 3 6 7 4 2 6 13 10 4 6 4 4 5 3 2 3 0 1 5 3 1 5 7 3 4 7 6 7 8 4 8 11 14 15 16 13 15 16 15 13 13 11 11 10 10 9
27 28 28 27 29 28 29 27 23 5 5 7 5 2 9 7 7 7 5 3 5 6 11 12 14 12 14 12 3 11 11 7 5 16 6 8 11 6 8 10 7 6 9 9 10 10 10 9 4 3 5 6 5 5 5 3 3 1 4 3 4 3 4 7 5 5 2 9 2 3 0 4 2 10 8 12 13 10 10 12 11 11 12 10 9 8 12 13
25 26 27 27 27 29 30 24 3 6 8 7 3 8 11 8 6 4 4 4 3 7 4 8 6 6 12 4 3 2 5 4 11 9 3 12 6 5 6 3 5 8 11 10 4 4 9 11 2 1 2 5 5 4 7 6 4 2 5 9 9 4 4 2 6 6 1 5 2 6 1 3 4 5 15 12 9 11 7 10 12 12 9 6 9 10 8 10
27 26 25 25 26 28 30 4 4 9 10 1 4 11 12 10 8 5 2 1 6 6 1 3 4 6 5 5 7 7 0 8 8 8 5 10 14 9 3 3 4 10 9 8 7 3 7 2 6 5 4 3 5 6 5 8 6 2 5 8 11 6 3 3 4 3 2 6 4 3 6 4 3 4 7 10 12 14 4 11 11 11 9 9 11 10 10 11
25 24 25 24 23 23 11 3 4 9 3 3 10 12 12 10 7 4 3 3 3 3 3 0 2 1 4 2 8 8 3 7 6 6 6 7 9 5 10 6 1 1 3 2 2 4 2 2 4 4 5 4 2 4 4 9 6 3 5 3 3 4 4 1 4 2 1 3 4 2 4 3 2 6 4 9 13 10 8 11 10 10 9 10 10 11 11 11
26 24 24 23 23 15 5 3 8 6 3 6 9 11 11 9 6 3 2 1 1 1 1 1 3 1 2 2 12 9 6 3 0 3 9 9 10 5 6 9 11 10 6 6 7 7 6 4 6 5 4 4 7 7 5 9 7 5 3 4 3 6 3 2 5 3 0 2 3 4 2 1 3 6 0 7 9 7 11 11 11 10 9 10 11 12 12 13
25 24 23 21 23 19 4 3 1 4 5 6 9 11 9 7 3 3 3 1 2 1 1 2 5 2 1 2 8 9 7 2 3 3 2 4 6 5 6 11 10 10 12 15 10 1 3 10 12 10 7 7 7 4 9 11 5 4 5 9 6 4 3 4 3 3 3 2 5 4 1 2 5 5 2 1 6 10 11 12 12 12 11 11 12 11 11 10
27 25 20 21 16 1 1 1 5 8 8 8 9 12 9 2 3 1 1 3 3 4 3 1 1 3 1 4 6 9 8 5 5 1 2 4 2 5 2 9 8 6 3 5 7 9 3 3 7 6 9 9 8 6 10 9 7 3 4 4 4 6 4 2 4 2 3 1 7 7 5 6 3 5 8 7 10 12 7 4 5 7 8 9 11 12 11 11
28 27 20 18 4 2 3 5 6 4 4 6 11 9 2 4 3 3 1 6 4 4 0 4 9 13 7 4 4 7 11 5 5 5 3 2 2 9 2 2 3 2 3 6 7 8 2 2 4 4 6 2 4 2 3 7 4 5 1 2 3 3 7 4 3 4 2 5 8 6 8 6 5 4 5 8 3 11 13 12 11 9 11 11 9 11 12 12
28 28 24 12 5 2 2 3 4 5 8 8 8 4 4 1 4 2 4 4 2 4 6 7 7 8 13 11 4 5 8 6 5 6 8 5 3 6 5 6 5 2 2 5 9 4 4 5 3 4 4 10 3 4 1 3 3 5 4 5 6 1 4 2 2 1 2 5 5 1 6 2 6 9 6 4 6 9 13 13 14 13 12 10 10 12 12 11
29 28 25 9 5 2 7 8 7 6 7 7 5 3 3 4 1 4 3 2 3 4 5 5 9 10 10 10 4 2 6 9 5 6 6 4 7 10 10 10 9 9 6 7 7 2 4 5 5 1 1 4 8 7 2 1 1 5 5 4 6 2 1 2 4 1 3 7 6 3 7 2 4 8 10 10 10 11 14 12 13 14 14 13 11 11 11 11
29 25 11 4 6 9 8 4 6 4 6 5 4 5 7 3 3 6 4 4 8 7 8 10 16 9 3 2 5 4 4 6 5 6 6 4 5 3 5 8 8 5 5 3 5 5 1 2 4 5 3 6 5 9 13 8 9 8 3 6 6 7 4 3 3 4 5 5 4 1 5 4 1 4 4 13 13 9 9 11 11 13 14 13 11 11 11 11
31 17 7 6 3 6 11 8 5 1 1 5 8 5 3 4 3 1 3 3 4 6 9 10 8 6 4 3 4 5 9 6 7 6 8 6 5 4 6 6 8 7 3 3 2 2 9 6 7 14 7 11 12 7 7 8 5 0 1 3 4 5 6 3 5 4 3 1 1 2 4 4 4 4 3 3 3 4 7 6 6 9 8 9 8 9 10 11
17 9 2 2 3 5 4 4 1 3 4 7 6 3 2 3 1 1 2 3 5 8 14 8 3 3 2 5 4 13 12 8 12 6 3 8 8 8 8 6 9 11 6 8 5 1 2 2 2 5 4 13 12 10 7 12 4 3 3 2 8 4 5 1 1 1 3 4 3 2 4 4 5 6 4 5 5 5 6 7 9 10 10 10 9 8 10 11
9 10 5 7 5 5 4 4 3 5 6 7 6 1 4 3 2 3 3 7 9 11 6 10 4 4 5 6 5 14 13 14 7 11 5 4 2 4 4 7 10 10 11 10 3 4 7 4 6 4 3 7 7 12 10 6 8 6 2 9 2 4 5 3 2 2 1 2 3 0 5 2 2 1 3 4 6 4 6 9 11 9 9 11 9 8 11 12
8 4 4 5 4 5 8 6 4 6 4 4 2 4 1 1 3 5 5 9 8 7 6 4 3 3 1 2 5 10 12 8 13 11 10 3 4 3 1 4 4 11 12 8 8 4 6 3 5 2 4 6 5 9 4 2 15 11 9 6 6 0 1 1 2 1 0 1 2 2 3 3 5 4 2 5 8 5 6 6 8 8 9 10 8 9 9 10
2 2 2 2 1 6 9 5 6 6 3 5 1 1 2 3 3 5 8 9 4 5 4 4 3 2 1 2 2 6 7 7 11 8 7 4 3 10 10 7 11 18 11 14 10 3 5 6 4 1 7 6 2 4 8 5 6 0 6 4 2 5 4 4 7 3 4 3 0 4 1 4 5 7 9 9 10 9 9 8 10 10 12 10 9 9 11 11
5 3 2 4 7 10 9 3 4 4 3 1 2 2 1 2 4 8 12 7 3 2 2 3 3 3 2 2 5 3 2 6 7 6 4 4 10 6 17 15 12 17 18 12 11 8 3 3 5 1 3 6 4 4 8 10 8 6 3 2 1 1 3 5 0 3 3 3 4 3 1 6 8 7 12 13 11 13 13 11 9 10 11 11 12 11 11 11
3 1 1 4 10 10 6 8 4 2 1 2 0 2 4 3 5 8 10 11 4 2 2 3 7 5 5 4 5 7 3 5 2 4 3 6 9 6 12 16 15 14 16 15 3 0 3 3 7 3 6 5 7 8 9 15 15 11 9 8 9 6 3 3 4 2 2 1 2 4 5 7 8 5 14 13 12 12 11 13 10 11 12 11 10 10 12 12
3 2 2 8 12 8 6 7 3 1 2 5 3 4 4 7 4 8 8 8 6 3 4 3 6 4 7 7 5 6 7 4 4 5 4 6 7 8 11 20 16 14 13 2 10 4 1 3 7 5 11 14 13 15 15 15 15 12 12 9 8 4 5 4 2 5 1 3 6 3 1 6 6 8 11 13 11 12 12 14 11 11 13 13 13 13 13 14
4 3 8 9 9 4 3 4 2 5 3 2 6 2 5 3 4 5 7 9 6 6 4 7 6 7 4 4 5 5 9 4 4 4 5 6 5 12 13 19 19 16 16 11 20 6 14 1 6 3 1 2 13 12 7 11 11 7 7 3 6 6 9 8 7 5 5 1 1 1 1 5 3 5 11 12 13 12 11 13 14 11 12 11 11 11 12 9
2 3 7 7 10 5 13 5 5 5 2 3 2 2 4 3 5 6 7 8 4 5 3 5 5 5 3 5 2 4 7 4 4 10 4 8 5 14 14 18 19 10 14 8 6 13 4 4 5 3 2 1 3 7 3 3 9 5 5 5 5 5 4 3 4 2 1 3 6 6 3 3 2 1 6 9 9 11 12 11 14 12 8 8 8 11 11 11
4 3 4 7 8 8 7 1 3 3 4 5 4 9 8 4 5 2 8 7 4 4 3 4 5 6 6 6 2 3 5 7 4 4 7 7 8 10 14 18 17 9 13 13 17 12 2 4 2 5 6 5 3 3 7 4 10 4 3 10 6 7 5 1 4 1 2 3 4 3 2 7 4 1 5 10 13 13 11 9 5 11 12 9 8 8 10 10
3 2 5 6 6 6 4 1 3 3 2 6 5 3 2 3 4 5 4 6 7 3 4 3 7 4 10 10 7 6 6 7 4 6 9 9 10 6 12 16 13 11 26 23 24 10 3 3 4 2 10 11 10 10 8 5 3 5 4 8 3 1 6 4 5 2 4 2 4 6 8 4 1 3 5 8 12 13 8 5 7 3 4 7 9 9 9 11
1 3 3 6 7 5 2 3 8 6 4 2 1 2 3 3 4 2 10 2 5 5 2 6 7 9 8 9 7 6 9 8 5 3 10 10 8 6 12 12 11 14 29 17 23 8 4 6 7 10 9 7 11 8 8 5 2 3 6 9 15 10 4 6 5 7 4 4 5 3 5 9 7 5 7 10 12 10 10 9 7 6 9 11 10 8 7 7
2 1 2 1 1 3 7 6 9 7 8 4 1 0 2 3 4 3 2 3 1 5 4 3 7 7 6 7 6 4 11 8 4 6 7 6 14 12 10 15 7 15 22 13 12 7 7 3 8 13 15 13 9 4 8 7 3 4 5 4 7 13 9 8 9 13 8 7 9 6 6 8 8 9 13 15 15 15 15 15 14 14 11 8 8 8 9 10
3 1 1 4 2 2 1 5 6 4 8 5 3 2 3 2 4 2 1 2 2 3 4 3 6 5 5 4 4 2 6 7 6 3 6 8 10 10 10 12 9 12 15 14 12 4 7 4 8 12 11 12 6 7 6 11 8 11 9 14 13 8 9 12 13 6 10 7 8 9 10 11 9 8 11 14 15 17 15 12 11 12 13 12 11 9 9 10
4 2 4 4 2 2 3 4 4 5 6 6 3 4 2 2 2 2 1 3 2 3 3 4 8 7 5 3 2 1 1 1 2 4 2 5 6 4 3 1 7 14 11 10 10 6 6 7 16 12 10 10 8 10 2 2 6 2 2 1 1 7 12 15 13 6 5 2 1 8 8 7 6 7 9 5 5 9 10 13 15 14 13 13 12 11 11 12
3 1 1 1 4 3 2 3 4 5 3 7 6 5 5 10 6 3 2 2 4 3 3 5 7 6 3 2 1 1 2 2 4 6 6 1 3 1 2 3 4 10 12 12 7 10 6 7 10 6 9 10 7 11 8 3 6 4 4 7 6 5 5 7 6 7 8 9 7 8 7 7 6 4 6 5 5 14 16 15 13 11 14 15 14 14 13 13
3 2 1 1 1 2 4 3 3 3 4 3 4 4 3 5 4 6 3 5 5 4 4 5 7 3 4 4 5 3 4 4 7 7 6 6 6 6 6 8 6 4 6 8 8 7 5 8 9 9 8 6 8 7 12 3 5 9 4 3 4 5 10 7 3 7 12 11 9 8 11 10 9 9 13 7 12 15 16 15 14 14 15 17 17 16 15 15
Wind_Direction
348 347 346 344 343 341 341 341 340 339 337 337 337 338 337 336 336 336 336 334 329 322 318 310 306 303 301 302 303 309 342 324 209 196 215 245 230 213 220 191 206 218 185 175 242 279 275 272 276 255 256 109 260 186 220 145 288 63 58 120 296 216 157 214 197 190 209 128 188 182 192 138 182 127 274 87 20 69 69 72 357 40 32 37 45 127 125 140
347 345 344 343 342 341 339 337 337 336 337 336 334 332 333 333 334 334 334 332 330 323 316 311 302 300 299 299 304 318 323 234 269 252 234 248 244 203 213 222 205 124 135 157 195 213 243 273 259 243 217 218 197 216 199 246 80 110 158 112 239 199 234 172 204 201 137 215 167 188 195 154 208 145 202 125 198 130 86 26 39 64 28 57 90 112 127 150
346 344 343 342 340 340 337 336 334 334 332 331 330 331 331 331 329 331 331 330 325 324 314 304 299 299 297 295 304 210 272 280 261 258 255 243 247 220 209 211 217 187 175 189 198 206 209 230 261 270 173 188 257 234 190 254 65 238 131 236 242 220 241 218 187 199 215 144 147 166 209 159 200 164 146 183 162 136 148 133 31 100 124 126 128 133 149 167
344 343 341 340 339 337 334 333 336 332 330 329 327 327 326 326 327 327 324 324 326 318 314 298 291 292 294 289 285 196 290 264 275 247 254 268 220 220 207 200 200 196 187 217 201 200 222 239 272 78 89 149 282 20 191 258 104 251 92 175 226 204 134 252 225 202 204 150 158 173 153 207 199 190 152 157 125 202 208 189 160 179 163 165 174 172 168 183
343 341 340 339 337 335 334 335 333 330 329 326 326 324 323 327 326 322 322 319 318 317 308 294 284 284 283 280 322 166 330 30 266 217 257 328 239 200 193 195 191 176 185 183 204 237 210 218 123 19 85 220 235 349 249 222 179 98 202 196 171 161 179 237 217 194 165 152 137 132 140 214 157 170 179 150 169 198 199 205 200 156 163 162 173 192 182 205
341 339 338 337 337 336 333 330 331 328 327 324 323 322 320 321 318 318 319 319 317 310 301 284 280 276 269 281 140 229 345 3 257 274 32 1 330 186 176 185 181 168 166 198 189 213 212 251 207 278 318 81 218 179 263 178 126 230 299 232 182 187 213 173 169 209 136 137 146 155 203 146 181 185 182 164 188 228 198 157 158 159 164 170 169 169 188 210
340 338 336 336 334 332 331 333 328 327 323 321 319 316 319 319 318 316 317 317 312 305 280 271 268 262 211 86 213 131 177 255 316 247 84 72 17 183 166 169 150 153 162 180 216 208 199 213 176 209 130 335 282 211 245 167 140 130 243 255 256 174 212 189 156 156 176 157 183 182 124 195 192 154 160 127 301 252 159 142 152 158 161 160 162 181 193 205
339 337 335 335 332 330 331 328 329 324 323 319 321 321 320 316 312 314 313 312 306 296 277 249 252 234 141 192 102 325 98 253 248 260 235 96 90 129 118 124 148 150 165 193 190 214 203 200 206 131 106 172 223 171 245 112 121 144 269 231 249 195 222 212 177 163 214 215 196 153 149 213 187 150 79 116 74 113 124 125 133 142 152 160 163 180 193 202
336 335 334 331 331 329 328 329 326 322 321 325 322 321 319 314 310 310 308 307 300 280 256 241 234 206 112 333 193 341 261 233 253 221 143 132 133 134 124 128 161 161 184 189 196 207 166 242 214 159 223 204 233 162 263 110 315 207 231 230 260 271 232 191 195 191 216 220 186 174 215 195 127 98 44 206 147 137 123 121 137 142 149 162 173 178 174 181
335 333 332 331 329 329 328 326 326 326 324 323 323 319 314 312 311 308 304 301 292 268 232 223 207 155 143 179 120 238 264 229 271 178 151 134 143 144 137 139 164 162 162 199 191 200 191 216 189 206 156 170 144 223 155 108 216 207 239 253 266 274 284 193 204 217 212 219 178 193 146 155 161 122 199 232 187 132 120 135 148 146 157 166 168 184 186 178
333 332 330 330 327 327 326 328 328 325 322 323 322 317 312 311 309 301 301 298 278 253 220 202 181 159 166 216 139 236 249 50 1 83 98 141 151 155 157 150 167 168 182 172 200 207 218 217 170 128 35 219 97 271 163 218 208 314 28 326 290 274 223 221 230 226 186 250 211 163 166 153 179 68 182 168 191 148 136 151 158 157 163 171 180 182 197 193
332 331 329 327 328 328 330 324 323 325 323 320 317 317 311 309 307 305 303 295 274 228 200 197 166 185 312 206 207 226 268 163 126 102 129 183 185 190 170 161 170 178 168 172 215 219 207 219 142 132 184 94 283 332 298 243 98 74 58 348 312 343 321 247 215 227 185 240 174 122 83 130 203 230 183 162 164 155 144 160 171 168 177 185 189 187 194 206
331 330 329 329 330 326 322 325 325 323 322 318 316 315 309 304 307 303 295 279 253 176 179 172 148 249 120 283 228 237 248 285 280 218 180 197 246 263 185 165 179 171 161 175 200 222 254 206 161 115 209 134 154 154 271 66 142 114 50 124 347 349 320 255 228 204 187 209 141 119 124 235 233 283 156 154 157 146 140 167 177 184 194 200 191 192 202 213
331 330 330 329 323 324 325 325 324 323 320 319 318 311 306 304 306 300 282 243 174 149 156 138 140 178 142 238 270 218 204 214 241 195 216 203 214 236 212 228 147 108 168 201 184 121 192 99 135 158 166 148 222 222 66 336 48 103 70 77 188 332 271 269 180 168 177 133 152 117 187 273 261 201 165 166 158 150 159 182 188 198 208 207 201 198 202 211
331 330 328 325 325 323 323 324 324 321 322 320 317 309 303 305 302 290 261 169 140 138 136 120 271 117 124 265 274 269 250 240 251 222 199 196 200 220 150 129 122 177 183 215 177 150 199 90 94 113 220 167 97 71 354 4 0 342 50 297 320 168 273 305 265 158 158 332 141 110 214 236 211 194 186 166 155 145 165 193 203 205 213 214 204 202 206 210
331 329 327 325 322 323 320 324 322 322 323 322 316 309 301 299 293 280 172 141 138 131 140 116 187 169 358 285 253 330 311 259 242 231 188 199 188 185 179 166 170 176 137 192 100 87 14 97 105 180 259 72 57 92 41 26 340 358 122 268 297 259 263 345 272 183 159 129 161 148 187 63 243 209 197 174 162 167 177 199 212 211 214 214 210 205 208 209
329 329 326 324 323 322 322 323 323 322 323 322 319 303 293 273 230 118 132 126 129 136 182 95 129 218 218 233 353 319 252 253 261 306 189 195 183 180 156 139 137 141 127 107 112 89 350 59 314 13 6 136 149 109 80 13 323 305 340 212 210 247 307 279 294 278 165 138 203 166 126 208 186 175 190 183 179 177 186 202 213 215 212 208 204 207 204 207
328 328 328 324 324 323 322 324 325 322 321 320 316 293 305 319 123 98 61 130 126 155 223 254 223 118 275 265 277 243 164 275 280 266 194 168 172 180 181 126 143 151 129 117 75 72 314 79 348 197 2 103 112 85 124 231 195 217 278 331 309 325 209 228 262 260 161 173 167 185 168 205 156 175 191 189 190 184 194 201 207 212 214 212 193 201 202 205
330 329 327 324 322 323 323 324 324 323 321 319 297 290 45 108 139 239 120 172 124 25 37 198 121 161 218 234 247 281 283 263 317 324 238 145 179 166 155 123 138 136 136 95 269 112 318 62 35 42 199 197 190 174 179 217 176 180 178 180 192 229 272 208 233 246 175 172 199 171 195 185 172 183 197 199 195 194 202 201 208 213 212 214 193 197 198 202
330 329 325 325 324 323 324 323 322 322 326 332 352 28 80 16 17 46 351 283 218 198 234 179 209 250 298 282 273 257 295 219 292 273 198 166 153 158 128 133 133 88 120 154 174 200 141 139 182 201 210 206 210 186 199 209 181 176 148 164 216 226 271 263 238 246 200 182 214 204 171 173 182 186 196 199 194 207 207 204 207 212 209 209 194 195 198 199
332 330 327 324 323 324 325 323 322 321 327 288 282 21 65 292 359 301 258 228 217 223 227 224 196 221 240 270 293 310 333 314 248 274 212 173 153 140 174 134 128 137 188 172 155 242 81 225 254 222 207 196 206 196 200 177 184 166 190 202 241 192 251 248 257 229 180 177 257 239 162 188 189 192 197 196 192 206 206 205 209 211 210 206 189 190 196 202
332 328 327 326 321 325 325 322 323 318 334 206 71 42 258 248 236 233 247 305 280 226 231 236 236 251 252 254 264 284 292 283 295 287 265 165 160 154 223 156 163 181 171 116 60 74 169 208 245 240 211 202 223 216 203 185 152 116 180 223 286 273 238 272 256 234 208 190 235 191 200 202 197 194 196 194 198 206 203 199 200 200 205 205 200 184 184 159
331 327 327 326 322 324 326 319 319 322 326 347 4 331 336 314 322 318 36 265 279 224 222 229 234 241 258 253 250 152 227 246 268 279 187 170 177 158 165 149 177 145 125 158 163 148 264 268 242 251 167 183 218 221 220 222 94 130 81 99 244 237 70 317 296 305 173 183 206 200 189 238 193 198 197 203 202 207 207 204 201 197 196 195 194 180 170 168
334 328 326 327 324 325 321 320 308 299 333 315 267 284 328 312 347 359 28 263 284 272 214 218 207 222 240 238 203 179 215 239 228 271 201 173 174 161 157 172 149 140 187 192 175 172 205 226 196 144 176 183 199 216 200 179 250 268 187 183 242 225 202 186 258 298 236 221 97 110 113 324 97 175 209 218 212 215 208 202 201 204 204 191 183 166 167 168
328 329 326 326 328 326 321 315 15 338 307 292 198 339 335 328 353 359 352 328 315 275 209 241 205 233 235 218 193 216 193 234 222 237 192 177 143 128 200 145 124 190 194 194 155 204 262 252 183 277 246 178 196 202 207 154 202 291 241 213 228 229 218 236 275 264 157 247 302 138 10 282 272 171 201 202 200 219 206 186 196 197 193 161 169 175 178 171
329 329 326 326 329 331 315 360 347 331 337 347 359 333 328 327 346 357 88 72 303 268 71 274 136 257 163 244 152 202 244 267 223 227 213 177 167 163 113 186 154 199 199 165 175 197 227 185 162 191 208 203 172 187 209 155 181 173 262 211 226 224 238 274 282 72 189 183 262 135 145 258 319 272 197 194 194 206 196 190 191 189 179 176 175 171 171 172
326 326 326 326 330 340 3 347 307 308 5 334 337 331 318 318 332 15 59 348 333 244 175 291 141 288 174 188 156 111 151 260 240 223 239 142 173 159 157 185 146 42 135 138 48 267 208 197 156 162 179 192 208 212 228 157 129 227 242 158 155 184 188 166 82 101 199 237 307 53 122 163 279 282 220 189 182 190 185 193 191 187 179 180 174 173 171 176
324 326 326 325 328 331 208 315 339 346 247 266 314 318 306 318 327 58 79 30 308 234 227 192 222 29 219 191 145 174 191 224 117 250 205 177 148 184 132 180 182 177 159 119 188 246 170 188 172 171 156 162 201 212 178 144 150 213 285 139 119 131 133 114 80 58 247 92 265 325 40 50 258 267 324 156 166 195 188 190 194 189 182 178 174 174 175 178
322 324 328 323 329 313 153 189 290 258 249 295 315 309 314 316 60 100 127 100 254 316 94 100 298 86 260 134 171 196 213 230 206 255 218 172 195 130 190 185 191 179 171 168 208 243 227 192 188 168 151 202 218 200 155 167 177 264 104 92 115 99 82 107 99 71 339 68 270 253 157 171 280 273 307 149 181 194 195 192 189 189 180 178 177 177 178 178
324 321 329 328 330 3 260 217 220 241 280 306 306 306 313 28 39 40 1 232 349 301 8 254 33 297 106 161 210 197 218 217 221 285 240 198 213 190 190 180 179 150 173 229 227 215 223 95 121 138 186 211 188 192 163 170 174 109 105 89 35 50 42 28 64 102 54 355 255 219 202 145 272 256 196 158 208 188 181 202 199 196 181 177 177 175 177 179
323 320 325 331 295 274 333 323 262 230 265 317 316 309 50 38 119 104 150 238 307 269 11 7 11 357 357 301 242 216 220 222 228 214 262 247 189 196 101 50 78 88 176 209 246 258 264 119 142 225 175 119 121 112 160 173 149 105 63 123 78 350 15 30 345 32 96 272 262 222 193 152 185 288 264 223 177 167 174 188 191 186 186 181 180 181 180 179
322 320 320 321 226 312 175 262 282 360 339 325 330 9 64 36 7 138 213 326 359 297 50 337 21 350 333 327 263 210 206 223 226 196 204 197 152 187 183 184 170 90 249 205 239 256 270 228 217 341 167 155 139 106 60 112 71 81 76 48 120 276 29 335 7 345 219 210 253 111 122 50 240 228 225 236 214 187 183 184 186 182 185 183 178 181 181 178
322 319 316 284 225 213 238 258 318 322 324 339 360 52 61 101 213 253 274 340 244 16 341 18 356 343 314 313 312 297 226 227 216 228 167 207 158 203 197 195 178 171 202 220 221 177 282 249 210 237 184 177 130 138 146 24 253 114 146 131 90 83 63 243 273 238 304 287 266 192 178 200 249 289 230 222 214 193 188 192 180 175 179 182 179 177 175 175
320 319 319 235 223 235 262 271 268 332 338 359 62 35 52 73 240 248 250 261 278 336 335 352 336 340 318 305 297 332 1 288 218 227 185 182 178 195 252 223 179 198 191 145 189 192 61 4 261 160 224 136 141 167 182 173 166 192 162 138 171 149 162 207 198 201 211 217 307 10 115 237 138 251 207 200 209 194 184 186 180 178 178 177 172 171 169 172
317 306 262 281 249 242 228 254 253 235 34 46 49 76 111 225 239 241 294 301 305 327 338 345 329 321 324 351 315 13 18 318 274 222 210 146 206 188 181 228 214 174 110 126 254 126 181 194 223 192 190 152 172 198 166 120 96 109 166 92 85 222 134 167 206 167 236 213 44 163 198 190 183 261 281 199 125 146 170 178 162 171 170 166 158 162 171 176
321 331 298 293 332 300 292 233 164 119 80 49 72 56 160 197 247 301 226 277 313 331 324 340 333 348 296 333 357 352 4 355 323 265 245 203 194 198 195 188 201 186 153 189 198 203 185 248 254 196 186 170 186 141 176 143 143 247 107 227 222 156 131 97 356 26 79 55 253 201 323 301 295 354 11 98 126 176 165 160 161 169 168 167 171 165 171 177
355 336 18 323 325 317 318 359 55 59 58 84 87 271 210 289 235 299 311 320 304 311 327 347 340 358 343 346 4 344 355 337 16 357 322 263 282 227 210 219 187 199 191 160 270 188 144 235 286 116 163 214 181 151 160 218 131 129 171 228 73 130 116 136 225 340 45 159 255 214 217 275 58 252 308 102 116 157 153 163 165 163 159 172 177 167 173 178
323 317 258 277 280 334 358 348 44 48 74 79 86 216 259 308 291 297 292 306 318 317 308 309 274 274 304 6 342 345 350 354 339 358 330 272 268 236 264 335 237 199 201 198 201 245 128 33 299 192 93 1 123 97 45 268 152 152 209 161 137 157 265 309 89 250 61 259 263 291 200 256 155 196 143 155 138 156 146 139 135 152 170 175 177 176 179 175
253 348 15 262 282 357 347 2 74 77 59 55 298 7 276 227 277 305 298 287 268 274 292 245 220 330 124 44 336 321 2 345 341 341 346 321 20 11 50 1 341 326 279 216 209 198 158 141 274 190 136 197 353 129 187 196 261 267 65 150 160 98 147 144 195 178 123 232 81 297 109 237 211 195 182 174 159 157 144 151 162 171 176 173 176 172 170 172
14 36 329 281 338 356 331 50 60 48 69 103 226 217 244 309 325 327 347 347 301 335 259 327 339 307 13 142 68 321 13 355 335 317 331 338 2 350 17 3 351 317 326 270 223 157 189 115 177 251 143 127 182 215 194 171 190 237 227 277 202 253 213 130 101 151 177 170 184 175 254 273 252 192 174 178 173 162 157 164 165 174 179 179 173 169 172 176
314 94 263 288 337 340 3 45 52 61 120 267 89 295 346 348 324 7 1 6 355 37 67 355 9 351 347 357 40 15 351 340 326 340 289 11 26 332 18 3 331 327 326 355 258 235 104 158 163 201 122 171 209 216 188 187 183 188 182 202 190 193 197 149 264 337 130 98 226 140 236 263 264 179 176 175 179 163 164 154 167 170 172 174 173 171 173 180
29 48 277 316 329 356 60 41 352 309 73 47 347 344 342 314 355 5 11 349 50 354 352 51 23 2 15 4 7 5 345 341 349 310 32 41 359 9 329 345 344 329 354 324 327 286 94 160 115 176 180 190 190 214 214 202 190 188 184 213 189 167 106 103 157 261 4 246 119 156 149 268 237 180 171 171 173 170 167 155 164 170 171 176 178 180 183 180
36 237 263 300 307 349 73 57 349 33 31 349 286 343 344 3 356 18 20 11 17 349 355 29 4 2 38 21 339 353 0 304 301 33 351 43 17 11 330 345 342 356 5 2 345 13 331 119 150 230 332 294 182 205 238 220 200 208 235 197 134 179 197 186 182 184 153 289 111 336 176 251 287 183 168 170 173 170 169 162 164 174 176 173 174 179 179 179
294 285 317 302 342 51 68 51 355 347 315 312 38 349 345 322 2 17 37 17 27 345 18 8 353 23 315 339 336 6 7 356 351 4 9 21 1 343 342 344 349 1 19 335 322 325 337 304 128 136 57 4 354 347 322 229 185 193 197 219 191 210 203 177 105 65 86 241 161 119 216 286 279 226 146 152 157 167 178 182 166 169 178 159 171 178 178 174
289 265 246 299 348 28 78 19 72 359 351 355 3 11 357 358 341 63 62 34 7 25 2 12 348 315 2 329 14 354 22 38 311 353 13 15 349 338 347 339 342 348 358 335 344 324 220 234 102 138 155 155 176 198 230 223 195 233 207 204 190 172 168 115 227 321 166 274 124 122 223 254 281 24 141 158 168 176 181 180 189 175 167 156 158 163 168 167
16 16 304 336 7 16 64 45 109 59 11 9 10 318 355 341 326 45 53 66 20 27 64 340 359 344 17 359 8 5 27 4 15 311 8 344 351 356 337 321 336 347 353 353 355 0 312 328 54 225 170 177 196 189 220 144 133 177 212 196 221 153 152 119 112 95 216 220 212 228 172 223 214 167 142 168 170 167 177 160 154 132 137 149 153 155 164 170
284 58 349 335 339 36 23 353 12 20 4 320 24 295 341 321 304 73 30 51 11 21 21 40 11 21 360 11 359 335 360 339 24 10 7 335 334 306 306 320 332 8 1 357 356 342 22 358 352 353 308 231 188 186 171 167 196 200 157 176 172 218 148 121 138 209 169 114 267 273 218 160 221 192 178 165 171 168 167 162 155 151 162 161 164 145 140 153
61 307 76 244 159 301 6 347 357 341 327 20 286 293 295 350 25 33 3 36 346 35 44 326 30 28 17 17 338 356 343 336 16 17 349 2 331 349 348 339 318 15 3 357 354 19 342 281 328 352 329 311 274 208 167 148 207 260 189 187 185 180 179 166 194 209 154 180 205 232 192 181 205 194 183 169 167 170 169 172 170 164 159 152 146 142 149 154
99 336 15 347 77 299 195 270 313 341 329 336 297 3 329 47 60 48 67 337 18 10 40 36 3 350 0 347 33 346 355 354 351 9 28 346 356 347 347 341 325 10 8 347 352 19 335 252 331 333 324 306 278 220 198 159 180 212 222 184 194 195 211 201 211 189 172 207 200 184 178 197 189 189 196 180 170 165 169 160 150 151 160 164 160 151 149 153
17 34 320 346 341 306 297 331 339 1 355 336 7 306 337 353 69 340 35 71 24 349 21 47 333 324 334 349 36 61 292 190 284 298 15 351 338 41 323 220 310 324 9 348 333 352 4 292 335 342 349 317 352 12 343 124 147 236 293 335 218 210 216 215 213 173 187 300 254 175 162 224 248 183 184 180 160 142 135 152 163 163 160 163 163 158 156 160
284 309 276 338 1 303 330 359 351 352 14 355 28 335 8 1 356 309 83 90 91 1 11 343 315 327 323 340 2 256 237 245 235 242 269 231 316 67 26 282 360 310 342 341 345 330 355 298 330 356 358 313 330 2 323 73 89 82 22 23 10 318 258 235 219 198 172 194 184 154 165 215 248 199 165 132 153 154 160 165 160 166 167 165 167 166 164 166
319 264 286 129 81 336 15 333 317 31 26 323 343 334 351 328 350 11 16 345 10 23 350 335 309 352 300 12 327 274 262 254 261 266 243 217 203 236 214 246 262 283 317 324 313 312 337 331 334 346 335 275 281 353 310 327 47 14 335 8 343 284 257 251 259 177 190 160 145 158 206 211 194 167 157 175 173 174 164 166 169 171 173 172 172 172 174 173